Starlink 31853

operational
NORAD ID: 59933 Int'l Des: 2024-106 Owner: SPXS Country: US Constellation: starlink
LEOCIRCULAR

About Starlink 31853

Description loading...

Live Position

Loading 3D Globe...

Upcoming Passes

Altitude History

Altitude vs Time

uPlot chart will show altitude changes over time

Two-Line Element Set

1 59933U 24106M 26033.45305837 .00002827 00000-0 11221-3 0 9990
2 59933 43.0013 171.5352 0002102 275.6260 84.4352 15.27583502 95131
Epoch: Feb 2, 2026 • Age: 27 hours

Current Status

Altitude 482.1 km
Velocity 7.63 km/s
Sub-Earth Point 5.81°N, 166.09°W
Launch Date Jun 1, 2024
Age 1.6 years
Type internet

Technical Details

Classification Payload
Mass 730.00 kg
Dry Mass 700.00 kg
Total Mass 730.00 kg
Length 0.30 m
Diameter 4.10 m
Span 29.00 m
Shape Box + pan
Manufacturer SPXS
Bus Type Starlink V2M
Phase Status In Orbit
Owner/State SPXS/US

Large Constellations

Loading constellations...